Location: Cosy Dell
(34.2789°N, 117.4537°W)
Time: 00:22:49
(UTC+00:00)

Cosmos 1400 Rocket - Pass Details

Date: 14 July 2020
Orbit: 520 x 569 km, 81.2° (Epoch: 12 August)

Event Time Altitude Azimuth Distance (km) Brightness Sun altitude
Rises 04:22:11 0° 343° (NNW) 2,675 7.3 -14.5°
Reaches altitude 10° 04:24:25 10° 337° (NNW) 1,775 6.4 -14.9°
Maximum altitude 04:28:06 42° 266° (W) 757 3.9 -15.5°
Drops below altitude 10° 04:31:44 10° 195° (SSW) 1,749 5.1 -16.0°
Enters shadow 04:31:51 - 194° (SSW) 1,795 5.2 -16.0°
